Showing default

LEMUR 2 KADI, 43184

Orbit data source: Space-Track

LEMUR 2 KADI, 43184 is a payload satellite owned by Spire (US) in SSO that was launched on Thu, 01 Feb 2018 UTC via a SOYUZ-2-1A launch vehicle from the Vostochny Cosmodrome (VOSTO). Payload-class satellites include a variety of spacecraft equipped with specific instruments for various scientific and technological missions. These include communications satellites like Starlink; space stations such as the ISS; scientific satellites like the Hubble; Earth observation satellites from companies like Planet Labs, Umbra, and HawkEye 360; GPS; miniature CubeSats for education and research; and military/defense satellites.

Not visible in the next 10 days
Identifier
43184, 2018-014E
Orbit
SSO
Country
Flag of USUS
Related business
Manufacturer
Spire/Glasgow
Mission
Operational Commercial Com/MetRO
Bus & Motor
CUBESAT 3U, Unknown motor
Mass
4.6 kg wet, 4.6 kg dry
Launch date (UTC)
2018-02-01 (8 years ago)
Launch vehicle
SOYUZ-2-1A
Launch site
Vostochny Cosmodrome (VOSTO)
Object type
Payload
Rocket body
Debris
Shape & HBR
Box + 2 Pan, 0.5 m
Radar Cross Section
0.124 m², Small (<0.1 m²)

Expand to show TLE details & history
Last TLE update: 15 hours ago

TLE from 15 hours ago
0 LEMUR 2 KADI
1 43184U 18014E   26037.70936650  .00088996  00000-0  11536-2 0  9996
2 43184  97.4782 320.7051 0006154  54.3950 305.7878 15.58550208440554
Epoch: 2026-02-06T17:01Z
TLE epoch observation values (Epoch: 2026-02-06T17:01:29.265Z)
Latitude
-0.00006°
Longitude
-71.51018°
Altitude
392.557 km
Speed
7.676 km/s
True Right ascension
21h 22m 49s
True Declination
0° 00' 00"
Sunlit
Object was in daylight at epoch
Visualization orbit readout
Latitude
Unknown
Longitude
Unknown
Altitude
Unknown
Speed
Unknown
Apparent Right ascension
Unknown
Apparent Declination
Unknown
Sunlit
N/A
Visualization observer readout
Local Sidereal Time
10:12:42
Azimuth
Unknown
Elevation
Unknown
Doppler factor
Unknown
Orbital elements
Apogee altitude
392.934 km
Perigee altitude
384.606 km
Semi-major axis
6,766.907 km
Eccentricity
0.00062
Inclination
97.4782°
RAAN
320.7051°
Arg. of periapsis
54.395°
True anomaly
305.73057°
Mean anomaly
305.7878°
Eccentric anomaly
305.75919°
Mean motion
3.89904 °/min
Orbital period
92.33 mins
BSTAR
0.0011536
Loading maneuver chart data...
Computing Atmospheric mass density...
Loading historical data...
Loading historical data...
Loading historical data...
Loading historical data...
Loading historical data...
Loading historical data...
Loading historical data...

Documentation

Showing up to 5 results
|